Weather History for McCook, NE

Change the Weather History Date:

Friday, April 11, 2014

  Actual Average Record
Temperature  
Mean Temperature 58 °F 48 °F  
Max Temperature 79 °F 63 °F 93 °F (1977)
Min Temperature 37 °F 33 °F 15 °F (1997)
Degree Days  
Heating Degree Days 8    
Growing Degree Days 8 (Base 50)    
Moisture  
Dew Point 34 °F    
Average Humidity 37    
Maximum Humidity 70    
Minimum Humidity 20    
Precipitation  
Precipitation 0.00 in 0.07 in 0.30 in (1991)
Month to date precipitation 0.19 0.65  
Year to date precipitation 0.94 3.14  
Sea Level Pressure  
Sea Level Pressure 29.89 in    
Wind  
Wind Speed 10 mph (South)    
Max Wind Speed 21 mph    
Max Gust Speed 31 mph    
Visibility 10 miles    
Events      
T = Trace of Precipitation, MM = Missing Value Source: NWS Daily Summary

Daily Weather History Graph

Daily Weather History Graph

Search for Another Location

Airport:

Trip Planner

Search our weather history database for the weather conditions in past years. The results will help you decide how hot, cold, wet, or windy it might be!

Date:

Astronomy

Apr. 11, 2014 Rise Set
Actual Time 7:10 AM CDT 8:17 PM CDT
Civil Twilight 6:42 AM CDT 8:45 PM CDT
Nautical Twilight 6:09 AM CDT 9:18 PM CDT
Astronomical Twilight 5:34 AM CDT 9:53 PM CDT
Moon 4:59 PM CDT (4/11) 5:06 AM CDT (4/11)
Length of Visible Light 14h 02m
Length of Day
13h 06m
Waxing Gibbous, 87% of the Moon is Illuminated
Apr 11
Waxing Gibbous
Apr 15
Full
Apr 22
Last Quarter
Apr 29
New
May 6
First Quarter

Hourly Weather History & Observations

Time (CDT) Temp. Windchill Dew Point Humidity Pressure Visibility Wind Dir Wind Speed Gust Speed Precip Events Conditions
12:53 AM 53.1 °F - 28.0 °F 38% 29.99 in 10.0 mi South 11.5 mph - N/A   Clear
1:53 AM 50.0 °F - 28.0 °F 43% 29.99 in 10.0 mi SE 5.8 mph - N/A   Clear
2:53 AM 48.9 °F - 28.9 °F 46% 29.99 in 10.0 mi ESE 5.8 mph - N/A   Clear
3:53 AM 46.0 °F - 28.9 °F 51% 29.99 in 10.0 mi Calm Calm - N/A   Clear
4:53 AM 46.9 °F - 28.0 °F 48% 29.99 in 10.0 mi SSW 4.6 mph - N/A   Clear
5:53 AM 42.1 °F 40.2 °F 30.0 °F 62% 30.01 in 10.0 mi SSW 3.5 mph - N/A   Clear
6:53 AM 37.9 °F 32.1 °F 28.9 °F 70% 30.03 in 10.0 mi SSW 8.1 mph - N/A   Clear
7:53 AM 48.9 °F - 28.9 °F 46% 30.01 in 10.0 mi SSW 17.3 mph 31.1 mph N/A   Clear
8:53 AM 53.1 °F - 32.0 °F 45% 30.02 in 10.0 mi SW 9.2 mph - N/A   Clear
9:53 AM 60.1 °F - 35.1 °F 39% 30.00 in 10.0 mi SW 11.5 mph - N/A   Clear
10:53 AM 64.9 °F - 37.0 °F 36% 29.99 in 10.0 mi WSW 10.4 mph - N/A   Clear
11:53 AM 66.9 °F - 37.9 °F 34% 29.97 in 10.0 mi SW 6.9 mph - N/A   Clear
12:53 PM 71.1 °F - 37.9 °F 30% 29.93 in 10.0 mi SW 11.5 mph 17.3 mph N/A   Clear
1:53 PM 73.9 °F - 37.9 °F 27% 29.89 in 10.0 mi South 15.0 mph 21.9 mph N/A   Clear
2:53 PM 75.9 °F - 37.9 °F 25% 29.87 in 10.0 mi South 16.1 mph - N/A   Clear
3:53 PM 78.1 °F - 37.0 °F 23% 29.83 in 10.0 mi South 16.1 mph - N/A   Clear
4:53 PM 78.1 °F - 37.0 °F 23% 29.80 in 10.0 mi South 20.7 mph 27.6 mph N/A   Clear
5:53 PM 78.1 °F - 36.0 °F 22% 29.78 in 10.0 mi South 17.3 mph - N/A   Clear
6:53 PM 77.0 °F - 33.1 °F 20% 29.76 in 10.0 mi South 20.7 mph 29.9 mph N/A   Clear
7:53 PM 73.0 °F - 33.1 °F 23% 29.73 in 10.0 mi South 15.0 mph - N/A   Clear
8:53 PM 69.1 °F - 34.0 °F 27% 29.73 in 10.0 mi SSE 11.5 mph - N/A   Clear
9:53 PM 64.9 °F - 35.1 °F 33% 29.72 in 10.0 mi South 12.7 mph - N/A   Clear
10:53 PM 64.9 °F - 36.0 °F 34% 29.71 in 10.0 mi South 18.4 mph - N/A   Clear
11:53 PM 64.0 °F - 39.0 °F 40% 29.68 in 10.0 mi South 16.1 mph 25.3 mph N/A   Clear